星链-6377 (STARLINK-6377 )

导读 | 豆包AI

STARLINK-6377是美国太空探索技术公司SpaceX旗下星链星座的成员卫星,于2023年7月16日发射入轨。星链星座计划打造全球低轨卫星互联网,旨在为地面网络难以覆盖的偏远地区、海洋和航空场景提供高速低延迟的宽带服务,该卫星也承担着全球网络覆盖扩展、补充星座组网能力的任务,不过星链大规模部署也引发了太空拥堵、轨道安全等国际争议。

基本信息
目录编号:
57341
目录名称:
STARLINK-6377
国际标识:
2023-099P
轨道中心:
EARTH
卫星名称:
星链-6377
卫星全名:
星链-6377 (STARLINK-6377 )
卫星状态:
在轨 (已飞行1019 天)
发射日期:
2023-07-16 UTC
国别 :
美国 (US)
星等 :
--
轨道信息
数据来源 国际轨道数据
星历时间: 2026-04-30T06:00:02+0800
7小时前
查看轨道信息
半长轴: 6866.262km
偏心率: 0.0001809
轨道倾角: 43.000°
近地点辐角 283.035°
升交点赤经 326.434°
平近点角 13.427°
近地点: 486.882km
远地点: 489.368km
周期: 94.371分钟
每日圈数: 15.258865
详细信息
固有亮度:
5
最大亮度:
2.5
卫星平台:
Starlink v1.5
覆盖范围:
全球
运营商:
太空探索技术公司
运营商所在国:
美国
制造商(研发单位):
太空探索技术公司
制造商所在国:
美国
使用方式:
暂无
卫星简介
星链(Starlink)计划是由太空探索技术公司(SpaceX)提出的一个巨型低轨卫星互联网星座项目,计划在2019年至2024年间在太空搭建由约1.2万颗卫星组成的“星链”网络,其中1584颗将部署在地球上空550千米处的近地轨道,并从2020年开始工作。该卫星仍在工作。
2D轨道图
3D轨道图
轨道高度分析图
轨道倾角分析图
轨道综合分析图
查看轨道综合分析图